User: anonymous   Login
Location: Fort Wayne
(41.1310°N, 85.1290°W)
Time: 07:03:32
(UTC-04:00)
Language:

Cosmos 1980 - Orbit

View from above orbital plane
View from above orbital plane
View from above satellite
View from above satellite

Ground track
Ground track

The orbit data is extracted from the following two-line orbital elements,

1 19649U 88102A   16180.22563146  .00000067  00000-0  59442-4 0  9994
2 19649  71.0006  88.7402 0004276 150.6720 209.4643 14.14641591424514
Epoch (UTC): 28 June 2016 05:24:54
Eccentricity: 0.0004276
inclination: 71.0006°
perigee height: 840 km
apogee height: 846 km
right ascension of ascending node: 88.7402°
argument of perigee: 150.6720°
revolutions per day: 14.14641591
mean anomaly at epoch: 209.4643°
orbit number at epoch: 42451

The dashed part of the orbit path shows where the satellite is in the earth's shadow,  

DLR